Location: Brady Lake
(41.1624°N, 81.3143°W)
Time: 11:24:36
(UTC+00:00)

X-37B - Visible Passes

Search period start: 12 August 2022 00:00
Search period end: 22 August 2022 00:00
Orbit: 328 x 343 km, 45.0° (Epoch: 27 July)

Date Brightness Start Highest point End Pass type
(mag) Time Alt. Az. Time Alt. Az. Time Alt. Az.
12 Aug 2.9 07:59:46 23° NE 07:59:46 23° NE 08:01:13 10° ENE visible
12 Aug 1.2 09:31:28 10° WNW 09:34:17 49° NNE 09:37:07 10° E visible
13 Aug 2.0 08:19:28 34° NNE 08:19:28 34° NNE 08:21:50 10° ENE visible
13 Aug 0.3 09:51:54 10° WNW 09:54:48 89° S 09:57:41 10° ESE visible
14 Aug 1.1 08:39:22 45° NNW 08:39:43 48° NNE 08:42:32 10° E visible
15 Aug 0.2 08:59:31 46° WNW 09:00:14 90° SE 09:03:08 10° ESE visible
16 Aug 0.9 09:20:00 32° WSW 09:20:37 37° SSW 09:23:19 10° SE visible
17 Aug 2.2 09:40:53 15° SW 09:40:53 15° SW 09:42:37 10° S visible
20 Aug 2.4 01:08:12 10° S 01:09:16 12° SSE 01:09:16 12° SSE visible
21 Aug 1.1 01:27:08 10° SW 01:29:40 31° SSE 01:29:55 30° SE visible
